GW3418 Weather Reports


time (UTC)temp
F
wind
direction
speed
knots
gust
knots
rain 1hr
in
rain 24hr
in
rain mn
in
humidity
%
barometer
mb
20260506033809 67 92 0.0 0.0 0.00 0.00 0.00 95 1012.8
20260506033310 67 92 0.0 0.0 0.00 0.00 0.00 95 1012.8
20260506032808 67 92 0.0 0.0 0.00 0.00 0.00 94 1012.8
20260506030807 67 114 0.0 0.0 0.00 0.00 0.00 94 1012.8
20260506030307 67 125 0.0 0.0 0.00 0.00 0.00 94 1012.8
20260506025805 67 121 0.0 0.0 0.00 0.00 0.00 94 1012.8
20260506025306 67 132 0.0 0.0 0.00 0.00 0.00 94 1012.9
20260506024806 67 126 0.0 0.0 0.00 0.00 0.00 94 1012.9
20260506024306 67 115 0.0 0.0 0.00 0.00 0.00 94 1013.1
20260506023305 67 132 0.0 0.0 0.00 0.00 0.00 95 1013.2
20260506022805 67 132 0.0 0.0 0.00 0.00 0.00 95 1013.1
20260506022306 67 132 0.0 0.0 0.00 0.00 0.00 95 1013.1
20260506021806 67 131 0.0 0.0 0.00 0.00 0.00 95 1013.1
20260506021305 67 132 0.0 0.0 0.00 0.00 0.00 95 1013.0
20260506020805 67 132 0.0 0.0 0.00 0.00 0.00 95 1013.0
20260506020259 67 127 0.0 0.0 0.00 0.00 0.00 95 1013.0
20260506015759 67 127 0.0 0.0 0.00 0.00 0.00 95 1013.0
20260506015259 67 116 0.0 0.0 0.00 0.00 0.00 94 1013.1
20260506014758 67 123 0.0 0.0 0.00 0.00 0.00 94 1012.9
20260506014257 67 123 0.0 0.0 0.00 0.00 0.00 94 1012.8
20260506013755 67 122 0.0 0.0 0.00 0.00 0.00 94 1012.9
20260506013251 68 120 0.0 0.0 0.00 0.00 0.00 94 1012.9
20260506012751 68 143 0.0 0.0 0.00 0.00 0.00 94 1012.8
20260506011749 68 120 0.0 0.0 0.00 0.00 0.00 94 1013.1
20260506011248 68 119 0.0 0.0 0.00 0.00 0.00 93 1013.1
20260506010749 68 120 0.0 0.0 0.00 0.00 0.00 93 1012.9
20260506010249 68 120 0.0 0.0 0.00 0.00 0.00 93 1013.0
20260506004746 69 136 0.0 0.0 0.00 0.00 0.00 92 1013.1
20260506004242 69 136 0.0 0.0 0.00 0.00 0.00 92 1013.2
20260506003236 69 147 0.0 0.0 0.00 0.00 0.00 91 1013.2
20260506002217 69 128 0.0 0.0 0.00 0.00 0.00 91 1013.2
20260506001711 69 134 0.0 0.0 0.00 0.00 0.00 90 1013.1
20260506001205 70 127 0.0 0.0 0.00 0.00 0.00 90 1013.1
20260506000700 70 121 0.0 0.0 0.00 0.00 0.00 90 1013.0
20260506000153 70 122 0.0 0.0 0.00 0.00 0.00 90 1013.0
20260505235647 70 137 0.0 0.0 0.00 0.00 0.00 90 1013.0
20260505235141 70 113 0.0 0.0 0.00 0.00 0.00 90 1013.0
20260505234636 70 129 0.0 0.0 0.00 0.00 0.00 90 1012.9
20260505234129 70 131 0.0 0.0 0.00 0.00 0.00 90 1013.0
20260505233118 70 75 0.0 0.0 0.00 0.00 0.00 90 1012.9
20260505232614 70 118 0.0 0.0 0.00 0.00 0.00 90 1013.0
20260505232111 70 114 0.0 0.0 0.00 0.00 0.00 90 1012.9
20260505231106 71 126 0.0 0.0 0.00 0.00 0.00 89 1013.0
20260505230606 71 126 0.0 0.0 0.00 0.00 0.00 89 1012.9
20260505225600 71 126 0.0 0.0 0.00 0.00 0.00 88 1013.0
20260505225058 71 126 0.0 0.0 0.00 0.00 0.00 88 1012.9
20260505224558 71 126 0.0 0.0 0.00 0.00 0.00 88 1012.9
20260505224056 71 117 0.0 0.0 0.00 0.00 0.00 88 1012.7
20260505223556 71 117 0.0 0.0 0.00 0.00 0.00 88 1012.7
20260505223056 71 117 0.0 0.0 0.00 0.00 0.00 88 1012.7
20260505222553 71 116 0.0 0.0 0.00 0.00 0.00 88 1012.6
20260505222054 71 112 0.0 0.0 0.00 0.00 0.00 88 1012.6
20260505221554 71 121 0.0 0.0 0.00 0.00 0.00 88 1012.7
20260505221054 71 126 0.0 0.0 0.00 0.00 0.00 88 1012.6
20260505220552 71 124 0.0 0.0 0.00 0.00 0.00 88 1012.7
20260505220058 71 115 0.0 0.0 0.00 0.00 0.00 88 1012.7
20260505215046 71 115 0.0 0.0 0.00 0.00 0.00 88 1012.5
20260505214546 71 114 0.0 0.0 0.00 0.00 0.00 88 1012.6
20260505214044 72 112 0.0 0.0 0.00 0.00 0.00 88 1012.6
20260505213545 72 127 0.0 0.0 0.00 0.00 0.00 88 1012.5
20260505213044 72 127 0.0 0.0 0.00 0.00 0.00 88 1012.3
20260505212545 72 136 0.0 0.0 0.00 0.00 0.00 88 1012.3
20260505212043 72 136 0.0 0.0 0.00 0.00 0.00 88 1012.2
20260505211545 72 136 0.0 0.0 0.00 0.00 0.00 88 1012.2
20260505211044 72 136 0.0 0.0 0.00 0.00 0.00 88 1012.3
20260505210544 72 136 0.0 0.0 0.00 0.00 0.00 87 1012.3
20260505210044 72 136 0.0 0.0 0.00 0.00 0.00 87 1012.2
20260505205544 72 136 0.0 0.0 0.00 0.00 0.00 87 1012.2
20260505205044 73 136 0.0 0.0 0.00 0.00 0.00 87 1012.2
20260505204542 73 138 0.0 0.0 0.00 0.00 0.00 86 1012.1
20260505203542 73 139 0.0 0.0 0.00 0.00 0.00 86 1012.2
20260505203040 73 140 0.0 0.0 0.00 0.00 0.00 86 1012.1
20260505202540 73 147 0.0 0.0 0.00 0.00 0.00 85 1012.1
20260505202036 73 122 0.0 0.0 0.00 0.00 0.00 86 1012.1
20260505201536 73 122 0.0 0.0 0.00 0.00 0.00 85 1012.1
20260505200538 74 131 0.0 0.0 0.00 0.00 0.00 85 1012.1
20260505200034 73 129 0.0 0.0 0.00 0.00 0.00 85 1012.1
20260505195527 74 125 0.0 0.0 0.00 0.00 0.00 85 1012.4
20260505195025 73 124 0.0 0.0 0.00 0.00 0.00 85 1012.3
20260505194011 74 124 0.0 0.0 0.00 0.00 0.00 84 1012.4
20260505193503 74 124 0.0 0.0 0.00 0.00 0.00 84 1012.4
20260505192451 74 127 0.0 0.0 0.00 0.00 0.00 84 1012.2
20260505191945 74 131 0.0 0.0 0.00 0.00 0.00 85 1012.1
20260505191439 74 125 0.0 0.0 0.00 0.00 0.00 84 1012.1
20260505190933 74 108 0.0 0.0 0.00 0.00 0.00 84 1012.4
20260505190428 74 124 0.0 0.0 0.00 0.00 0.00 84 1012.3
20260505185921 74 151 0.0 0.0 0.00 0.00 0.00 84 1012.2
20260505185416 74 122 0.0 0.0 0.00 0.00 0.00 84 1012.3
20260505184909 74 138 0.0 0.0 0.00 0.00 0.00 83 1012.3
20260505184403 74 113 0.0 0.0 0.00 0.00 0.00 83 1012.3
20260505183858 75 82 0.0 0.0 0.00 0.00 0.00 83 1012.3
20260505183351 75 82 0.0 0.0 0.00 0.00 0.00 83 1012.5
20260505182339 75 81 0.0 0.0 0.00 0.00 0.00 83 1012.5
20260505181833 75 71 0.0 0.0 0.00 0.00 0.00 83 1012.4
20260505181328 75 71 0.0 0.0 0.00 0.00 0.00 83 1012.4
20260505180821 76 71 0.0 0.0 0.00 0.00 0.00 82 1012.6
20260505180317 76 71 0.0 0.0 0.00 0.00 0.00 82 1012.5
20260505175809 76 71 0.0 0.0 0.00 0.00 0.00 82 1012.6
20260505175305 75 70 0.0 0.0 0.00 0.00 0.00 83 1012.5
20260505174757 75 65 0.0 0.0 0.00 0.00 0.00 84 1012.7
20260505174251 75 65 0.0 0.0 0.00 0.00 0.00 83 1012.7
20260505173239 75 71 0.0 0.0 0.00 0.00 0.00 82 1012.7
20260505172733 75 101 0.0 0.0 0.00 0.00 0.00 82 1012.7
20260505172227 75 103 0.0 0.0 0.00 0.00 0.00 82 1012.8
20260505171215 75 74 0.0 0.0 0.00 0.00 0.00 82 1012.9
20260505170715 76 74 0.0 0.0 0.00 0.00 0.00 81 1012.9
20260505170215 76 105 0.0 0.0 0.00 0.00 0.00 80 1013.0
20260505165715 76 72 0.0 0.0 0.00 0.00 0.00 81 1012.9
20260505164716 77 50 0.0 0.0 0.00 0.00 0.00 80 1012.9
20260505163715 77 77 0.0 0.0 0.00 0.00 0.00 79 1012.9
20260505163215 77 70 0.0 0.0 0.00 0.00 0.00 80 1013.2
20260505162715 77 93 0.0 0.0 0.00 0.00 0.00 80 1013.2
20260505162215 77 93 0.0 0.0 0.00 0.00 0.00 80 1013.3
20260505161716 77 68 0.0 0.0 0.00 0.00 0.00 80 1013.3
20260505161215 77 63 0.0 0.0 0.00 0.00 0.00 80 1013.3
20260505160714 76 68 0.0 0.0 0.00 0.00 0.00 81 1013.2
20260505160215 76 70 0.0 0.0 0.00 0.00 0.00 81 1013.2
20260505153215 74 65 0.0 0.0 0.00 0.00 0.00 83 1013.3
20260505152715 74 69 0.0 0.0 0.00 0.00 0.00 84 1013.3
20260505151715 73 82 0.0 0.0 0.00 0.00 0.00 84 1013.3
20260505151215 73 75 0.0 0.0 0.00 0.00 0.00 82 1013.2
20260505150715 73 84 0.0 0.0 0.00 0.00 0.00 84 1013.4
20260505150214 72 84 0.0 0.0 0.00 0.00 0.00 84 1013.5
20260505140508 0 0.0 0.0 0.00 0.00 0.00 1013.8
20260505130117 0 0.0 0.0 0.00 0.00 0.00 1013.8
20260505125014 0 0.0 0.0 0.00 0.00 0.00 1013.8
20260505124506 0 0.0 0.0 0.00 0.00 0.00 1013.7
20260505124005 0 0.0 0.0 0.00 0.00 0.00 1013.7
20260505123413 0 0.0 0.0 0.00 0.00 0.00 1013.6
20260505122904 0 0.0 0.0 0.00 0.00 0.00 1013.5
20260505122403 0 0.0 0.0 0.00 0.00 0.00 1013.6
20260505121306 0 0.0 0.0 0.00 0.00 0.00 1013.3
20260505120711 0 0.0 0.0 0.00 0.00 0.00 1013.5
20260505120207 0 0.0 0.0 0.00 0.00 0.00 1013.2
20260505115707 0 0.0 0.0 0.00 0.00 0.00 1013.1
20260505115206 0 0.0 0.0 0.00 0.00 0.00 1013.0
20260505114618 0 0.0 0.0 0.00 0.00 0.00 1013.0
20260505114111 0 0.0 0.0 0.00 0.00 0.00 1013.1
20260505113605 0 0.0 0.0 0.00 0.00 0.00 1012.9
20260505112512 0 0.0 0.0 0.00 0.00 0.00 1012.9
20260505112009 0 0.0 0.0 0.00 0.00 0.00 1012.9
20260505111507 0 0.0 0.0 0.00 0.00 0.00 1012.7
20260505111008 0 0.0 0.0 0.00 0.00 0.00 1012.7
20260505102211 0 0.0 0.0 0.00 0.00 0.00 1012.5
20260505101707 0 0.0 0.0 0.00 0.00 0.00 1012.5
20260505101117 0 0.0 0.0 0.00 0.00 0.00 1012.5
20260505100616 0 0.0 0.0 0.00 0.00 0.00 1012.5
20260505100107 0 0.0 0.0 0.00 0.00 0.00 1012.3
20260505095603 0 0.0 0.0 0.00 0.00 0.00 1012.2
20260505095007 0 0.0 0.0 0.00 0.00 0.00 1012.2
20260505094419 0 0.0 0.0 0.00 0.00 0.00 1011.9
20260505092905 0 0.0 0.0 0.00 0.00 0.00 1011.9
20260505092404 0 0.0 0.0 0.00 0.00 0.00 1011.9
20260505091303 0 0.0 0.0 0.00 0.00 0.00 1012.0
20260505090705 0 0.0 0.0 0.00 0.00 0.00 1011.9
20260505090205 0 0.0 0.0 0.00 0.00 0.00 1011.8
20260505084608 0 0.0 0.0 0.00 0.00 0.00 1011.8
20260505084105 0 0.0 0.0 0.00 0.00 0.00 1011.8
20260505083605 0 0.0 0.0 0.00 0.00 0.00 1011.9
20260505083013 0 0.0 0.0 0.00 0.00 0.00 1012.0
20260505082513 0 0.0 0.0 0.00 0.00 0.00 1011.9
20260505082003 0 0.0 0.0 0.00 0.00 0.00 1012.0
20260505080815 0 0.0 0.0 0.00 0.00 0.00 1011.8
20260505080218 0 0.0 0.0 0.00 0.00 0.00 1011.9
20260505075707 0 0.0 0.0 0.00 0.00 0.00 1011.9
20260505075207 0 0.0 0.0 0.00 0.00 0.00 1011.9
20260505073618 51 84 0.0 0.0 0.00 0.00 0.00 97 1011.7
20260505072608 51 94 0.0 0.0 0.00 0.00 0.00 97 1011.6
20260505072107 52 94 0.0 0.0 0.00 0.00 0.00 97 1011.5
20260505071107 52 94 0.0 0.0 0.00 0.00 0.00 97 1011.4
20260505070605 52 94 0.0 0.0 0.00 0.00 0.00 97 1011.4
20260505070105 52 94 0.0 0.0 0.00 0.00 0.00 97 1011.5
20260505065605 52 94 0.0 0.0 0.00 0.00 0.00 97 1011.5
20260505065103 52 94 0.0 0.0 0.00 0.00 0.00 98 1011.3
20260505064601 52 94 0.0 0.0 0.00 0.00 0.00 98 1011.4
20260505064059 51 94 0.0 0.0 0.00 0.00 0.00 97 1011.5
20260505063557 52 94 0.0 0.0 0.00 0.00 0.00 97 1011.5
20260505062553 52 94 0.0 0.0 0.00 0.00 0.00 98 1011.5
20260505062050 52 94 0.0 0.0 0.00 0.00 0.00 98 1011.6
20260505061550 51 94 0.0 0.0 0.00 0.00 0.00 98 1011.7
20260505061049 51 94 0.0 0.0 0.00 0.00 0.00 98 1011.8
20260505060549 51 94 0.0 0.0 0.00 0.00 0.00 97 1011.8
20260505060049 51 94 0.0 0.0 0.00 0.00 0.00 97 1011.8
20260505055549 51 94 0.0 0.0 0.00 0.00 0.00 97 1011.8
20260505055049 51 94 0.0 0.0 0.00 0.00 0.00 97 1011.8
20260505054549 51 94 0.0 0.0 0.00 0.00 0.00 97 1011.8
20260505054049 51 94 0.0 0.0 0.00 0.00 0.00 97 1011.8
20260505053549 51 94 0.0 0.0 0.00 0.00 0.00 97 1011.9
20260505052549 51 94 0.0 0.0 0.00 0.00 0.00 96 1012.1
20260505052049 51 94 0.0 0.0 0.00 0.00 0.00 96 1012.0
20260505051546 51 94 0.0 0.0 0.00 0.00 0.00 97 1012.1
20260505051045 51 94 0.0 0.0 0.00 0.00 0.00 97 1012.0
20260505050545 51 94 0.0 0.0 0.00 0.00 0.00 96 1011.9
20260505041520 52 94 0.0 0.0 0.00 0.00 0.00 95 1011.9
20260505041004 52 94 0.0 0.0 0.00 0.00 0.00 95 1011.9
20260505035952 52 94 0.0 0.0 0.00 0.00 0.00 95 1011.9
20260505034947 52 94 0.0 0.0 0.00 0.00 0.00 95 1011.8
20260505034445 52 94 0.0 0.0 0.00 0.00 0.00 95 1011.8